Flag for U.S.A. Weather past 2 weeks in Lansing, Michigan, U.S.A.

Now
78 °F

Partly sunny.


Feels Like: 80 °F
Forecast: 63 / 79 °F
Wind: 14 mph from West

Location: Capital City Airport

Current Time: Aug 20, 2014 at 2:41:45 PM

Latest Report: Aug 20, 2014 at 1:53 PM


Visibility: 10 mi

Pressure: 29.87 "Hg

Humidity: 62%

Dew point: 64 °F

Location of LansingLocation

Historic Weather in Lansing — Graph

°F

Lansing temperature yesterday

Maximum temperature yesterday: 77 °F (at 12:53 PM)
Minimum temperature yesterday: 63 °F (at 6:53 AM)
Average temperature yesterday: 68 °F

Past Weeks' High & Low Weather Summary

 TemperatureHumidityPressure
High83 °F (Aug 10, 4:53 PM)100% (Aug 6, 5:53 AM)30.17 "Hg (Aug 6, 5:53 AM)
Low46 °F (Aug 15, 3:53 AM)39% (Aug 7, 5:53 PM)29.67 "Hg (Aug 12, 4:53 AM)
Average67 °F73%29.97 "Hg
* Reported Aug 5 12:53 PM — Aug 20 12:53 PM, Lansing, Weather by CustomWeather, © 2014

Note: Actual official high and low records may vary slightly from our data, if they occured in-between our weather recording intervals... More about our weather records

Advertising

Lansing weather history for previous 24 hours

 ConditionsComfort  
Time TempWeatherWind HumidityBarometerVisibility
12:53 PM
Aug 20
78 °FBroken clouds.12 mph62%29.86 "Hg10 mi
11:53 AM76 °FScattered clouds.7 mph69%29.85 "Hg10 mi
10:53 AM74 °FPassing clouds.5 mph74%29.85 "Hg9 mi
9:53 AM69 °FFog.5 mph90%29.85 "Hg5 mi
8:53 AM67 °FFog.3 mph97%29.84 "Hg3 mi
8:04 AM66 °FFog.5 mph96%29.83 "Hg0 mi
7:53 AM66 °FFog.3 mph96%29.82 "Hg0 mi
6:53 AM66 °FFog.6 mph93%29.81 "Hg4 mi
6:02 AM65 °FFog.No wind94%29.81 "Hg2 mi
5:53 AM65 °FFog.No wind94%29.80 "Hg3 mi
4:53 AM65 °FFog.No wind94%29.78 "Hg4 mi
3:53 AM65 °FFog.No wind94%29.76 "Hg5 mi
2:53 AM66 °FFog.5 mph93%29.75 "Hg6 mi
1:53 AM67 °FPartly cloudy.3 mph93%29.76 "Hg9 mi
12:53 AM68 °FMostly cloudy.No wind90%29.77 "Hg10 mi
11:53 PM
Aug 19
67 °FPassing clouds.6 mph90%29.76 "Hg10 mi
11:04 PM67 °FMostly cloudy.6 mph90%29.78 "Hg9 mi
10:53 PM66 °FOvercast.6 mph93%29.77 "Hg9 mi
9:53 PM65 °FPassing clouds.No wind94%29.77 "Hg10 mi
8:53 PM66 °FPassing clouds.5 mph90%29.75 "Hg10 mi
7:53 PM67 °FSunny.7 mph90%29.74 "Hg10 mi
6:53 PM66 °FSunny.8 mph90%29.75 "Hg10 mi
6:00 PM65 °FPassing clouds.10 mph94%29.75 "Hg10 mi
4:53 PM66 °FThunderstorms. Overcast.7 mph90%29.75 "Hg7 mi
3:53 PM66 °FThunderstorms. Fog.13 mph90%29.78 "Hg5 mi
2:53 PM77 °FThunderstorms. Partly sunny.7 mph71%29.73 "Hg9 mi
2:04 PM77 °FBroken clouds.8 mph74%29.76 "Hg8 mi
Weather by CustomWeather, © 2014

See weather overviewHow to use our weather pages